Regional Weather Roundup
Issued by NWS Cleveland, OH

Home | Current Version | Previous Version | Graphics & Text | Print | Product List | Glossary On
Versions: 1 2 3 4 5 6 7 8 9 10 11 12 13 14 15 16 17 18 19 20 21 22 23 24 25 26 27 28 29 30 31 32 33 34 35 36 37 38 39 40 41 42 43 44 45 46 47 48 49 50
000
ASUS41 KCLE 290502
RWRCLE
OHIO REGIONAL WEATHER ROUNDUP
NATIONAL WEATHER SERVICE CLEVELAND, OH
100 AM EDT TUE JUL 29 2014

NOTE: "FAIR" INDICATES FEW OR NO CLOUDS BELOW 12,000 FEET WITH NO
SIGNIFICANT WEATHER AND/OR OBSTRUCTIONS TO VISIBILITY.

OHZ001>008-015>018-024>027-034-035-043-044-290600-
   NORTHWEST OHIO

CITY           SKY/WX    TMP DP  RH WIND       PRES   REMARKS
DEFIANCE       CLEAR     57  50  77 N5        30.02R
FINDLAY        CLOUDY    62  50  64 N13       30.00R
TOLEDO EXPRESS CLEAR     55  50  83 NW3       30.01S
TOLEDO EXEC    PTCLDY    58  48  69 N3        30.01S
LIMA           CLEAR     57  52  83 NW8       30.01R
$$

OHZ009>014-019>023-028>033-038-089-290600-
   NORTHEAST OHIO

CITY           SKY/WX    TMP DP  RH WIND       PRES   REMARKS
CLE-HOPKINS    CLOUDY    60  47  61 N10       29.99S
CLE-LAKEFRONT  CLOUDY    61  47  59 N13G20    29.95F
CUY CO. ARPT   NOT AVBL
LORAIN-ELYRIA  CLOUDY    62  47  57 N8        29.99R
ASHTABULA      CLOUDY    57  47  69 NW5       29.94F
AKRON-CANTON   PTCLDY    55  47  74 NW3       29.97S
WOOSTER        PTCLDY    55  50  83 N6        29.99S
MANSFIELD      CLOUDY    58  53  84 N3        29.99S
YOUNGSTOWN     CLOUDY    54  49  83 W5        29.95F
$$

OHZ042-051>053-060>062-070>072-077>081-290600-
  SOUTHWEST OHIO

CITY           SKY/WX    TMP DP  RH WIND       PRES   REMARKS
CINC-COVINGTON CLEAR     58  50  75 NW5       30.02S
CINC-LUNKEN    CLEAR     59  52  77 NW5       30.02R
HAMILTON       CLEAR     55  52  89 NW6       30.03R
DAYTON         CLEAR     56  50  80 NW8       30.02R
WRIGHT-PAT AFB CLEAR     57  52  81 NW7       30.00S
DAYTON GENERAL CLEAR     57  52  83 NW8       30.00S
WILMINGTON     CLEAR     58  51  78 NW8       30.00S
$$

OHZ036-037-039>041-045>050-054>059-063>069-073>076-082>088-290600-
  CENTRAL AND SOUTHEAST OHIO

CITY           SKY/WX    TMP DP  RH WIND       PRES   REMARKS
COLUMBUS       CLOUDY    65  56  72 NW5       29.97R
OSU AIRPORT    CLOUDY    63  55  75 NW10      29.98R
BOLTON FIELD   NOT AVBL
RICKENBACK AFB CLOUDY    63  53  69 NW9       29.97R
NEWARK         CLOUDY    62  56  80 N3        29.97R
MARION         LGT RAIN  60  55  83 NE7       29.99R
LANCASTER      CLOUDY    61  58  90 CALM      29.97R
ZANESVILLE     CLOUDY    59  54  83 NW3       29.97R
NEW PHILLY     CLOUDY    58  53  84 N3        29.98R
$$



USA.gov is the U.S. government's official web portal to all federal, state and local government web resources and services.